Albany, NY

7:27 PM EST on December 10, 2019 (GMT -0500)
Albany International

Weather History for KALB - July, 2019

Change the Weather History Date:

Thursday, July 25, 2019

  Actual Average Record
Temperature  
Mean Temperature 72 °F 72 °F  
Max Temperature 84 °F 83 °F 97 °F (1939)
Min Temperature 59 °F 62 °F 46 °F (1953)
Degree Days  
Heating Degree Days 0 0  
Month to date heating degree days 0  
Since 1 June heating degree days 52  
Since 1 July heating degree days 0  
Cooling Degree Days 6 7  
Month to date cooling degree days 172  
Year to date cooling degree days 320  
Since 1 June cooling degree days 290  
Growing Degree Days 22 (Base 50)    
Moisture  
Dew Point 57 °F    
Average Humidity 61    
Maximum Humidity 87    
Minimum Humidity 25    
Precipitation  
Precipitation 0.00 in 0.13 in 1.57 in (1908)
Month to date precipitation 3.32  
Year to date precipitation 21.89  
Sea Level Pressure  
Sea Level Pressure 30.12 in    
Wind  
Wind Speed 3 mph (NW)    
Max Wind Speed 17 mph    
Max Gust Speed 25 mph    
Visibility 10 miles    
Events Fog , Rain , Thunderstorm    
T = Trace of Precipitation, MM = Missing Value Source: NWS Daily Summary

Daily Weather History Graph

Daily Weather History Graph

Search for Another Location

Airport or City:

Astronomy

Jul. 25, 2019 Rise Set
Actual Time 5:39 AM EDT 8:23 PM EDT
Civil Twilight 5:06 AM EDT 8:56 PM EDT
Nautical Twilight 4:25 AM EDT 9:37 PM EDT
Astronomical Twilight 3:37 AM EDT 10:24 PM EDT
Moon 12:27 AM EDT (7/25) 1:58 PM EDT (7/25)
Length of Visible Light 15h 49m
Length of Day
14h 44m
Last Quarter, 44% of the Moon is Illuminated
Jul 25
Last Quarter
Jul 31
New
Aug 7
First Quarter
Aug 15
Full
Aug 23
Last Quarter

Hourly Weather History & Observations

Time (EDT) Temp. Heat Index Dew Point Humidity Pressure Visibility Wind Dir Wind Speed Gust Speed Precip Events Conditions
12:51 AM 64.9 °F - 57.9 °F 78% 30.05 in 10.0 mi North 5.8 mph - N/A   Partly Cloudy
1:51 AM 63.0 °F - 55.9 °F 78% 30.05 in 10.0 mi Calm Calm - N/A   Clear
2:51 AM 62.1 °F - 55.9 °F 80% 30.06 in 10.0 mi Calm Calm - N/A   Partly Cloudy
3:51 AM 62.1 °F - 55.9 °F 80% 30.06 in 10.0 mi Calm Calm - N/A   Partly Cloudy
4:51 AM 61.0 °F - 55.9 °F 83% 30.07 in 10.0 mi Calm Calm - N/A   Scattered Clouds
5:51 AM 60.1 °F - 55.9 °F 86% 30.09 in 10.0 mi Calm Calm - N/A Fog Patches of Fog
6:51 AM 61.0 °F - 57.0 °F 87% 30.11 in 10.0 mi Calm Calm - N/A Fog Patches of Fog
7:51 AM 66.9 °F - 55.9 °F 68% 30.13 in 10.0 mi Calm Calm - N/A   Clear
8:51 AM 70.0 °F - 55.0 °F 59% 30.14 in 10.0 mi Calm Calm - N/A   Partly Cloudy
9:51 AM 73.0 °F - 57.0 °F 57% 30.13 in 10.0 mi Calm Calm - N/A   Partly Cloudy
10:51 AM 75.9 °F - 57.9 °F 54% 30.13 in 10.0 mi SW 5.8 mph - N/A   Partly Cloudy
11:51 AM 78.1 °F - 57.0 °F 48% 30.12 in 10.0 mi South 3.5 mph - N/A   Partly Cloudy
12:51 PM 81.0 °F 81.0 °F 57.0 °F 44% 30.12 in 10.0 mi Variable 4.6 mph - N/A   Scattered Clouds
1:51 PM 82.9 °F 81.8 °F 53.1 °F 36% 30.11 in 10.0 mi NW 6.9 mph - N/A   Scattered Clouds
2:51 PM 82.9 °F 81.9 °F 54.0 °F 37% 30.10 in 10.0 mi WNW 8.1 mph - N/A Thunderstorm Scattered Clouds
3:06 PM 82.9 °F 81.8 °F 53.1 °F 36% 30.10 in 10.0 mi Variable 3.5 mph - N/A Thunderstorm Thunderstorm
3:41 PM 80.1 °F 80.7 °F 59.0 °F 48% 30.11 in 10.0 mi NE 13.8 mph 20.7 mph N/A   Scattered Clouds
3:51 PM 82.0 °F 82.1 °F 59.0 °F 45% 30.10 in 10.0 mi ENE 8.1 mph - N/A   Scattered Clouds
4:51 PM 73.9 °F - 55.9 °F 53% 30.14 in 10.0 mi North 17.3 mph 25.3 mph N/A   Mostly Cloudy
5:51 PM 73.9 °F - 57.9 °F 57% 30.12 in 10.0 mi North 4.6 mph - 0.00 in Rain Light Rain
6:51 PM 75.0 °F - 59.0 °F 57% 30.14 in 10.0 mi NW 3.5 mph - 0.00 in   Mostly Cloudy
7:51 PM 73.9 °F - 59.0 °F 59% 30.14 in 10.0 mi NW 3.5 mph - N/A   Scattered Clouds
8:51 PM 70.0 °F - 62.1 °F 76% 30.16 in 10.0 mi Calm Calm - N/A   Scattered Clouds
9:51 PM 66.9 °F - 59.0 °F 76% 30.17 in 10.0 mi SSW 4.6 mph - N/A   Partly Cloudy
10:51 PM 66.9 °F - 61.0 °F 81% 30.18 in 10.0 mi Calm Calm - N/A   Clear
11:51 PM 64.9 °F - 59.0 °F 81% 30.18 in 10.0 mi Calm Calm - N/A   Clear